SCP
1 1 1 1 1 1 1 1 1 1 1 1 1 1 1 1 1 1 1 1 1 1 0 0 0 0 0 0 0 0 0 0
1 1 1 1 1 1 1 1 1 1 1 1 1 1 1 1 1 1 1 1 1 0 0 0 0 0 0 0 0 0 0 0
1 1 1 1 1 1 1 1 1 1 1 1 1 1 1 1 1 1 1 1 0 0 0 0 1 0 0 0 0 0 0 0
1 1 1 1 1 1 1 1 1 1 1 1 1 1 1 1 1 1 0 0 0 1 0 0 0 0 0 0 0 0 0 0
1 1 1 1 1 1 1 1 1 1 0 1 1 1 1 1 1 1 0 0 0 0 0 0 0 0 0 0 0 0 0 0
1 1 1 1 1 1 1 2 1 1 0 1 1 1 0 0 1 0 0 0 0 0 0 0 0 0 0 0 0 0 0 0
2 1 1 1 1 2 1 1 1 1 1 0 1 1 0 0 0 0 0 0 0 0 0 0 0 0 0 0 0 0 0 0
3 3 2 2 2 2 1 1 1 1 1 1 0 1 0 0 0 0 0 0 0 0 0 0 0 0 0 0 0 0 0 0
5 4 4 3 2 2 1 1 1 1 1 1 0 0 0 0 0 0 0 0 0 0 0 0 0 0 0 0 0 0 0 0
5 6 4 4 3 3 2 1 1 1 1 1 0 0 0 0 0 0 0 0 0 0 0 0 0 0 0 0 0 0 0 0
4 6 5 4 4 3 2 2 2 1 1 1 0 0 0 0 0 0 0 0 0 0 0 0 0 0 0 0 0 0 0 0
0 5 5 4 6 4 3 2 2 2 1 1 0 1 0 0 0 0 0 0 0 0 0 0 0 0 0 0 0 0 0 0
0 3 4 5 6 5 3 3 2 2 1 1 1 1 0 0 0 0 0 0 0 0 0 0 0 0 0 0 0 0 0 0
0 1 3 5 6 5 5 3 3 2 1 1 1 0 0 0 0 0 0 0 0 0 0 0 0 0 0 0 0 0 0 0
0 1 4 5 5 6 2 0 0 1 0 1 1 0 0 0 0 0 0 0 0 0 0 0 0 0 0 0 0 0 0 0
0 0 3 4 5 5 3 3 2 1 1 1 0 0 0 0 0 0 0 0 0 0 0 0 0 0 0 0 0 0 0 0
0 0 2 2 3 4 4 3 2 1 1 0 1 0 0 0 0 0 0 0 0 0 0 0 0 0 0 0 0 0 0 0
0 0 2 2 3 3 3 2 1 0 0 0 0 0 0 0 0 0 0 0 0 0 0 0 0 0 0 0 0 0 0 0
0 0 1 2 2 2 2 1 1 0 0 0 0 0 0 0 0 0 0 0 0 0 0 0 0 0 0 0 0 0 0 0
0 0 1 2 2 2 1 0 1 0 0 0 0 0 0 0 0 0 0 0 0 0 0 0 0 0 0 0 0 0 0 0
Wind_Speed_500mb
53 48 41 35 35 35 37 40 41 42 42 43 42 41 40 38 37 35 34 36 34 33 34 35 38 33 29 26 30 27 29 32
55 49 42 37 36 36 34 36 38 39 40 42 43 43 43 41 40 38 35 35 35 35 36 39 35 34 32 34 34 30 31 33
55 51 47 41 36 35 35 35 36 38 39 41 44 45 44 44 44 42 38 37 37 35 38 38 41 40 35 39 39 33 31 33
52 50 49 46 42 39 37 37 38 38 41 44 45 43 44 45 44 44 42 42 43 42 42 43 44 44 41 44 45 37 35 36
50 50 49 48 46 44 42 42 41 39 38 38 41 44 46 47 47 48 46 46 50 49 51 49 49 49 50 52 46 34 35 38
52 53 52 52 52 51 48 47 45 42 41 41 45 48 49 48 50 50 50 48 49 56 61 54 50 53 48 53 51 45 42 44
60 62 58 55 51 59 59 56 51 46 44 46 46 48 48 47 50 50 49 48 48 59 64 58 53 55 49 50 51 51 53 46
71 72 69 65 61 52 61 65 59 53 48 49 49 47 47 47 50 49 49 49 50 54 51 53 55 52 53 50 55 52 51 49
81 80 82 77 69 61 54 70 65 60 56 52 50 50 49 47 49 47 48 50 52 55 51 55 50 53 54 53 48 52 55 53
70 76 90 84 77 66 59 62 70 66 61 56 52 52 49 48 48 46 47 48 53 56 56 65 65 57 57 60 49 41 57 57
74 79 85 88 85 70 65 63 71 71 66 59 54 54 52 51 49 47 47 48 51 53 58 68 63 67 58 54 53 52 58 65
61 76 86 82 80 77 71 71 73 74 68 65 56 57 56 52 50 49 47 50 53 53 59 63 68 60 59 60 59 50 51 66
54 55 74 88 89 87 83 80 79 72 70 70 62 58 55 54 53 52 52 55 57 52 52 54 57 57 58 57 54 55 57 67
62 55 59 82 92 84 90 84 84 75 70 70 64 61 60 60 59 57 57 56 57 54 53 52 53 59 63 54 38 48 72 74
70 60 62 64 90 90 95 90 87 80 73 70 78 69 65 66 60 59 59 58 58 57 53 52 56 63 66 44 17 22 45 54
50 61 60 60 85 96 96 89 95 85 72 86 84 71 69 67 60 61 58 58 56 54 50 52 56 64 67 72 50 30 29 29
45 59 60 63 77 99 100 98 97 87 90 88 76 72 69 64 57 58 55 55 53 50 47 53 60 64 64 69 73 54 46 40
28 42 53 64 73 92 109 98 99 94 89 80 80 75 69 59 59 59 59 56 57 50 50 55 59 62 67 65 72 75 67 56
20 41 54 64 62 86 105 98 100 97 87 77 77 75 67 60 63 59 59 58 56 48 51 55 61 63 66 71 68 77 78 81
22 31 45 63 65 80 92 92 86 86 75 65 70 71 63 53 54 55 51 52 52 50 53 56 62 70 72 72 72 73 77 80
Wind_Direction_500mb
187 189 190 193 196 200 199 197 196 197 198 198 200 201 202 199 202 203 202 198 199 194 188 186 187 188 194 202 201 196 196 192
191 190 193 197 199 200 203 201 200 200 202 200 202 204 204 203 205 208 205 204 205 199 195 192 193 195 195 202 202 199 200 200
196 197 197 199 201 203 204 204 205 204 207 204 205 205 206 206 209 210 207 206 207 202 197 205 196 196 203 207 201 198 201 199
205 206 206 203 203 208 209 208 209 208 209 206 206 206 208 210 212 213 211 209 206 201 207 201 198 207 204 204 205 203 202 197
218 218 219 216 213 213 213 214 214 213 213 214 207 207 208 210 211 211 213 216 211 203 200 200 204 208 204 203 205 206 202 196
229 228 224 224 224 224 222 222 219 216 214 213 213 208 210 211 212 215 217 220 217 211 205 205 212 213 208 209 208 199 218 207
233 236 231 227 231 231 227 227 226 220 216 215 220 215 216 216 216 218 221 221 222 216 213 212 215 211 211 210 214 215 210 210
237 238 239 236 233 238 237 230 226 224 220 219 221 222 220 221 220 221 223 224 225 224 223 214 212 207 208 218 231 216 211 213
242 240 242 238 238 240 244 237 228 224 223 220 221 225 221 223 223 224 226 227 228 230 224 212 212 209 219 224 236 217 216 219
250 247 240 238 239 238 241 239 229 225 224 219 216 224 221 222 224 225 225 227 230 232 219 213 218 220 227 234 220 222 222 218
251 242 241 236 236 237 240 241 233 227 222 219 215 222 222 222 226 225 224 226 228 228 225 223 228 221 229 227 218 220 224 227
262 244 241 234 233 232 232 236 230 229 223 220 219 223 223 224 227 227 227 226 228 227 230 237 232 223 220 220 224 223 233 229
269 250 241 231 228 224 227 228 233 230 228 225 222 225 228 227 230 227 227 230 231 231 230 234 235 230 220 222 223 237 247 240
267 260 249 237 230 228 226 225 230 230 228 229 225 228 230 229 228 226 227 227 230 231 226 219 220 216 214 218 227 248 242 242
262 259 252 239 235 227 226 223 223 222 225 228 232 228 228 229 225 226 226 229 230 229 227 223 217 218 218 211 196 219 213 217
250 255 246 246 233 226 224 220 221 225 226 232 227 227 223 227 222 221 223 225 228 230 230 230 224 222 219 221 225 224 193 195
246 243 238 239 233 230 228 222 222 224 223 231 227 223 220 222 219 219 219 223 226 225 228 229 231 232 230 223 222 228 232 198
250 236 235 230 232 232 226 224 221 220 224 227 226 219 220 217 217 219 220 222 224 224 233 237 237 237 240 237 232 224 219 203
258 217 224 226 227 231 225 225 224 221 225 222 226 216 218 220 218 217 219 220 225 229 239 245 245 246 243 246 239 233 233 223
302 218 218 224 225 227 226 230 228 225 226 226 229 218 220 223 218 219 223 215 225 233 244 250 258 256 253 247 244 234 223 214
Wind_Speed_850mb
53 48 41 35 35 35 37 40 41 42 42 43 42 41 40 38 37 35 34 36 34 33 34 35 38 33 29 26 30 27 29 32
55 49 42 37 36 36 34 36 38 39 40 42 43 43 43 41 40 38 35 35 35 35 36 39 35 34 32 34 34 30 31 33
55 51 47 41 36 35 35 35 36 38 39 41 44 45 44 44 44 42 38 37 37 35 38 38 41 40 35 39 39 33 31 33
52 50 49 46 42 39 37 37 38 38 41 44 45 43 44 45 44 44 42 42 43 42 42 43 44 44 41 44 45 37 35 36
50 50 49 48 46 44 42 42 41 39 38 38 41 44 46 47 47 48 46 46 50 49 51 49 49 49 50 52 46 34 35 38
52 53 52 52 52 51 48 47 45 42 41 41 45 48 49 48 50 50 50 48 49 56 61 54 50 53 48 53 51 45 42 44
60 62 58 55 51 59 59 56 51 46 44 46 46 48 48 47 50 50 49 48 48 59 64 58 53 55 49 50 51 51 53 46
71 72 69 65 61 52 61 65 59 53 48 49 49 47 47 47 50 49 49 49 50 54 51 53 55 52 53 50 55 52 51 49
81 80 82 77 69 61 54 70 65 60 56 52 50 50 49 47 49 47 48 50 52 55 51 55 50 53 54 53 48 52 55 53
70 76 90 84 77 66 59 62 70 66 61 56 52 52 49 48 48 46 47 48 53 56 56 65 65 57 57 60 49 41 57 57
74 79 85 88 85 70 65 63 71 71 66 59 54 54 52 51 49 47 47 48 51 53 58 68 63 67 58 54 53 52 58 65
61 76 86 82 80 77 71 71 73 74 68 65 56 57 56 52 50 49 47 50 53 53 59 63 68 60 59 60 59 50 51 66
54 55 74 88 89 87 83 80 79 72 70 70 62 58 55 54 53 52 52 55 57 52 52 54 57 57 58 57 54 55 57 67
62 55 59 82 92 84 90 84 84 75 70 70 64 61 60 60 59 57 57 56 57 54 53 52 53 59 63 54 38 48 72 74
70 60 62 64 90 90 95 90 87 80 73 70 78 69 65 66 60 59 59 58 58 57 53 52 56 63 66 44 17 22 45 54
50 61 60 60 85 96 96 89 95 85 72 86 84 71 69 67 60 61 58 58 56 54 50 52 56 64 67 72 50 30 29 29
45 59 60 63 77 99 100 98 97 87 90 88 76 72 69 64 57 58 55 55 53 50 47 53 60 64 64 69 73 54 46 40
28 42 53 64 73 92 109 98 99 94 89 80 80 75 69 59 59 59 59 56 57 50 50 55 59 62 67 65 72 75 67 56
20 41 54 64 62 86 105 98 100 97 87 77 77 75 67 60 63 59 59 58 56 48 51 55 61 63 66 71 68 77 78 81
22 31 45 63 65 80 92 92 86 86 75 65 70 71 63 53 54 55 51 52 52 50 53 56 62 70 72 72 72 73 77 80
Wind_Direction_850mb
187 189 190 193 196 200 199 197 196 197 198 198 200 201 202 199 202 203 202 198 199 194 188 186 187 188 194 202 201 196 196 192
191 190 193 197 199 200 203 201 200 200 202 200 202 204 204 203 205 208 205 204 205 199 195 192 193 195 195 202 202 199 200 200
196 197 197 199 201 203 204 204 205 204 207 204 205 205 206 206 209 210 207 206 207 202 197 205 196 196 203 207 201 198 201 199
205 206 206 203 203 208 209 208 209 208 209 206 206 206 208 210 212 213 211 209 206 201 207 201 198 207 204 204 205 203 202 197
218 218 219 216 213 213 213 214 214 213 213 214 207 207 208 210 211 211 213 216 211 203 200 200 204 208 204 203 205 206 202 196
229 228 224 224 224 224 222 222 219 216 214 213 213 208 210 211 212 215 217 220 217 211 205 205 212 213 208 209 208 199 218 207
233 236 231 227 231 231 227 227 226 220 216 215 220 215 216 216 216 218 221 221 222 216 213 212 215 211 211 210 214 215 210 210
237 238 239 236 233 238 237 230 226 224 220 219 221 222 220 221 220 221 223 224 225 224 223 214 212 207 208 218 231 216 211 213
242 240 242 238 238 240 244 237 228 224 223 220 221 225 221 223 223 224 226 227 228 230 224 212 212 209 219 224 236 217 216 219
250 247 240 238 239 238 241 239 229 225 224 219 216 224 221 222 224 225 225 227 230 232 219 213 218 220 227 234 220 222 222 218
251 242 241 236 236 237 240 241 233 227 222 219 215 222 222 222 226 225 224 226 228 228 225 223 228 221 229 227 218 220 224 227
262 244 241 234 233 232 232 236 230 229 223 220 219 223 223 224 227 227 227 226 228 227 230 237 232 223 220 220 224 223 233 229
269 250 241 231 228 224 227 228 233 230 228 225 222 225 228 227 230 227 227 230 231 231 230 234 235 230 220 222 223 237 247 240
267 260 249 237 230 228 226 225 230 230 228 229 225 228 230 229 228 226 227 227 230 231 226 219 220 216 214 218 227 248 242 242
262 259 252 239 235 227 226 223 223 222 225 228 232 228 228 229 225 226 226 229 230 229 227 223 217 218 218 211 196 219 213 217
250 255 246 246 233 226 224 220 221 225 226 232 227 227 223 227 222 221 223 225 228 230 230 230 224 222 219 221 225 224 193 195
246 243 238 239 233 230 228 222 222 224 223 231 227 223 220 222 219 219 219 223 226 225 228 229 231 232 230 223 222 228 232 198
250 236 235 230 232 232 226 224 221 220 224 227 226 219 220 217 217 219 220 222 224 224 233 237 237 237 240 237 232 224 219 203
258 217 224 226 227 231 225 225 224 221 225 222 226 216 218 220 218 217 219 220 225 229 239 245 245 246 243 246 239 233 233 223
302 218 218 224 225 227 226 230 228 225 226 226 229 218 220 223 218 219 223 215 225 233 244 250 258 256 253 247 244 234 223 214